Regional Weather Roundup
Issued by NWS Wakefield, VA

Home | Current Version | Previous Version | Graphics & Text | Print | Product List | Glossary On
Versions: 1 2 3 4 5 6 7 8 9 10 11 12 13 14 15 16 17 18 19 20 21 22 23 24 25 26 27 28 29 30 31 32 33 34 35 36 37 38 39 40 41 42 43 44 45 46 47 48 49 50
000
ASUS41 KAKQ 251910
RWRAKQ

REGIONAL WEATHER ROUNDUP
NATIONAL WEATHER SERVICE WAKEFIELD VA
300 PM EDT FRI JUL 25 2014

Note: "fair" indicates few or no clouds below 12,000 feet with no
significant weather and/or obstructions to visibility. * = Denotes
station may not report precipitation (e.g., rain,snow,etc.),
thunder or fog.

VAZ042-051-052>054-056-252000-
NORTHERN VIRGINIA

CITY           SKY/WX    TMP DP  RH WIND       PRES   REMARKS
WASH NATIONAL  MOSUNNY   84  53  34 NE8       30.01F
DULLES         MOSUNNY   80  50  34 W5        30.01F
FORT BELVOIR   SUNNY     82  55  39 W6        30.01F
QUANTICO       MOSUNNY   82  56  40 W8        30.02F
FREDERICKSBRG* SUNNY     82  58  45 NW7       30.01F
STAFFORD*      MOSUNNY   81  58  44 S6        30.06F
WARRENTON      MOSUNNY   83  64  54 CALM      30.02F
CULPEPER*      SUNNY    N/A N/A N/A W5        30.02F
MANASSAS*      NOT AVBL
LEESBURG*      SUNNY     79  55  44 CALM      30.02F
WINCHESTER     MOSUNNY   81  55  41 SE5       30.01F
$$

VAZ048-049-060>072-079>083-252000-
CENTRAL AND SOUTH CENTRAL VIRGINIA...AND NORTH CENTRAL NORTH CAROLINA

CITY           SKY/WX    TMP DP  RH WIND       PRES   REMARKS
RICHMOND       MOSUNNY   84  55  36 NW6       30.03F
CHESTERFIELD*  CLOUDY   N/A N/A N/A SW5       30.05F
HANOVER        MOSUNNY   83  57  41 W7        30.04F
TAPPAHANNOCK*  SUNNY     82  50  33 CALM      30.03F
CHARLOTTSVILLE MOSUNNY   78  60  53 VRB6      30.02F
ORANGE*        PTSUNNY   82  59  44 S3        30.03F
LOUISA*        MOSUNNY   81  61  50 CALM      30.02F
FARMVILLE*     SUNNY     82  57  42 CALM      30.01F
SOUTH HILL*    PTSUNNY   82  63  51 CALM      30.09F
ROANOKE RAPIDS PTCLDY    84  63  48 CALM      30.03F
RALEIGH        PTSUNNY   80  62  54 E6        30.03F
$$

VAZ088>098-252000-
SOUTHEAST VIRGINIA

CITY           SKY/WX    TMP DP  RH WIND       PRES   REMARKS
NORFOLK        SUNNY     80  57  45 NE9       30.03F
VIRGINIA BEACH MOSUNNY   82  58  43 N10       30.02F
NORFOLK NAVAL  MOSUNNY   81  58  45 NE7       30.04F
WEST POINT*    SUNNY     83  53  35 N5        30.04F
NEWPORT NEWS   SUNNY     85  59  41 VRB3      30.03F
LANGLEY AFB    SUNNY     80  61  50 E7        30.02F
FORT EUSTIS    SUNNY     81  63  54 W6        30.02S
WILLIAMSBURG*  PTSUNNY   84  63  48 CALM      30.04S
FRANKLIN*      SUNNY     81  59  47 NE5       30.03F
WAKEFIELD      SUNNY     84  60  44 NW6       30.03F
$$

VAZ020-022-025-037-045-252000-
WESTERN AND SOUTHWEST VIRGINIA

CITY           SKY/WX    TMP DP  RH WIND       PRES   REMARKS
STAUNTON*      PTSUNNY   78  58  49 SW7       30.06F
HOT SPRINGS VA CLOUDY    69  52  54 W10       30.17S
LYNCHBURG      CLOUDY    77  61  57 E5        30.06F
DANVILLE       CLOUDY    81  65  58 VRB5      30.04F
MARTINSVILLE   PTSUNNY   83  63  51 S3        30.07F
ROANOKE        PTSUNNY   79  61  53 SE9       30.06F
BLACKSBURG     MOSUNNY   81  63  54 W5          N/A
DUBLIN*        MOSUNNY   81  61  50 N3        30.08F
MARION*        SUNNY    N/A N/A N/A W12G17    30.11F
HILLSVILLE*    PTSUNNY   75  63  67 S6        30.10F
RICHLANDS*     PTCLDY    76  58  52 W12       30.12S
WISE*          PTSUNNY   73  59  60 NE3       30.12F
ABINGDON*      MOSUNNY   80  60  51 W6        30.08F
$$

MDZ021>025-VAZ099-100-252000-
SOUTHERN MARYLAND AND THE DELMARVA PENINSULA

CITY           SKY/WX    TMP DP  RH WIND       PRES   REMARKS
PATUXENT RIVER MOSUNNY   79  59  50 N8        30.02F
BAY BRIDGE APT   N/A     79  50  36 NE5       30.01F
LEONARDTOWN    SUNNY     79  52  38 SW6       30.02F
DOVER          MOSUNNY   80  58  46 VRB3      29.99F
GEORGETOWN     SUNNY     80  53  39 VRB6      30.01F
EASTON         SUNNY     81  54  39 N7        30.05F
CAMBRIDGE      SUNNY     79  52  38 N7        30.02S
SALISBURY      NOT AVBL
OCEAN CITY     SUNNY     77  64  64 E9        30.01F
WALLOPS ISLAND MOSUNNY   83  50  31 N9        30.01F
ACCOMACK*        N/A     79  55  44 NW5       30.02F
$$

NCZ012>017-030>032-252000-
EASTERN NORTH CAROLINA

CITY           SKY/WX    TMP DP  RH WIND       PRES   REMARKS
ELIZABETH CITY SUNNY     82  62  50 NE7       30.03F
AHOSKIE*       SUNNY     81  62  52 N5        30.03F
EDENTON*       PTSUNNY   81  66  59 SE6       30.03S
CURRITUCK*     SUNNY     83  54  36 E8        30.04F
KILL DEVIL HLS SUNNY     79  62  57 NE7       30.03F
MANTEO         NOT AVBL
CAPE HATTERAS  PTSUNNY   81  69  67 CALM      30.04S
GOLDSBORO      MOSUNNY   83  71  65 VRB6      30.00F
WASHINGTON     SUNNY     81  69  66 E5        30.03F
GREENVILLE     MOSUNNY   84  68  58 SE6       30.04S
NEW BERN       CLOUDY    84  68  58 E6        30.03F
WILMINGTON     CLOUDY    80  72  76 E7        30.02F
$$

VAZ048-252000-
ELSEWHERE

CITY           SKY/WX    TMP DP  RH WIND       PRES   REMARKS
HARRISBURG PA  MOSUNNY   80  49  33 W7        30.00F
BALTIMORE      MOSUNNY   82  51  34 NW6       30.00F
ANNAPOLIS      SUNNY     79  53  40 CALM      30.00F
ANDREWS AFB    SUNNY     81  51  34 W8        30.01F
WILMINGTON DE  SUNNY     80  55  42 VRB3      30.01F
PHILADELPHIA   MOSUNNY   81  54  39 S6        29.99F
WILDWOOD NJ*   SUNNY     77  57  50 W5        30.02F
ATLANTIC CITY  SUNNY     78  63  59 E9        30.00F
HENDERSON NC   PTSUNNY   82  59  45 NE6       30.05S
GREENSBORO     PTSUNNY   79  65  62 CALM      30.04F
ROCKY MOUNT    SUNNY     83  65  54 VRB3      30.02F
FAYETTEVILLE   CLOUDY    82  68  62 E3        30.00F
CHARLOTTE      MOSUNNY   83  65  54 SE3       30.02F
$$

VAZ100-252000-
MARINE

STATION/POSITION TIME  TEMP    WIND        PRES    WAVE   SWELL
                       AIR SEA DIR/SP/G            HT/PER HT/PER
                 (UTC) (F)     (DEG/KT/KT) (MB)    (FT/S) (FT/S)
44066 TX TWR #4  1900   72 75   40/  4/  8 1016.0R   3/ 4   2/ 4
CAPE MAY NJ      1900   75 79  300/  6/  8 1016.0F
LEWES DE         1900   73 74   40/  8/  9 1016.1F
15NM E FENWICK I 1900   72 76              1016.7F   2/ 7
OCEAN-CITY-INLET 1900   74 74  100/  7/  9 1016.0F
WACHAPREAGUE VA  1900   81 81  280/  3/  7 1016.4F
THOMAS POINT MD  1900   75 79   80/  7/  9 1016.5F
GOOSES REEF MD   1900   75      80/  6/  8 1017.0F
COVE POINT MD    1900   74      60/  5/  6 1016.6F
SOLOMONS ISLAND  1900      81                N/A
BISHOPS HEAD MD  1900   76 79  290/ 11/ 13 1016.2F
PINEY POINT MD   1900          310/ 10/ 11   N/A
POTOMAC MD       1900   76     280/  4/  8 1016.1F
CAMBRIDGE MD     1900   75 80  330/  5/  8 1016.1F
LEWISETTA VA     1900   78 78  360/  7/ 10 1016.3F
RAPPAHANNOCK LGT 1900           10/ 12/ 14 1017.4F
STINGRAY PT      1900   76      70/  6/  8 1017.5F
YORK RVR RNG VA  1900   76     110/  7/  9 1016.3F
YORKTOWN VA      1900   78 80   90/  7/  9 1016.6S
JAMESTOWN VA     1900   77     190/  2/  4   N/A
DOMINION TERM VA 1900   77     110/  9/ 11 1017.0F
KIPTOPEKE VA     1900      81  350/  8/ 12   N/A
CHES BAY BRIDGE  1900   76 79   10/  4/  7 1016.6F
CAPE HENRY VA    1900   76     360/  9/ 11 1016.0S
WILLOUBY STN VA  1900          100/  7/  8 1016.2F
S CRANEY ISL VA  1900             CALM     1016.9F
CAPE HENRY BUOY  1900      77                N/A     2/ 4
1ST LANDING BUOY 1900   77      10/  8/ 10 1016.9S
CAPE CHARLES BUO 1900      75                N/A     2/ 7
OFFSHORE WE BUOY 1900      78                N/A     3/ 5
64NM E OF VA BCH 1900   75 78  360/ 12/ 16 1016.5F   3/ 7   2/ 7
DUCK PIER NC     1900   75 75   10/ 12/ 13 1016.4F
44056 DUCK FRF   1900                        N/A     3/ 4
OREGON INLET NC  1900   78 78   10/ 10/ 14 1017.2F
HATTERAS NC      1900   79 80   30/  7/ 10 1017.7R
DIAMOND SHLS NC  1900          VRB  6/  8  1017.3R   2/ 7   2/ 7
CAPE LOOKOUT NC  1800   77      80/  9/ 10 1017.4R
$$


USA.gov is the U.S. government's official web portal to all federal, state and local government web resources and services.